Find Starlink 1556

NORAD ID: 46033 Int'l Des: 2020-055 Owner: SPXS Country: US Constellation: starlink operational
LEOCIRCULARSTARLINK_TYPE

現在のビュー

3D地球を読み込み中...

About Starlink 1556

Starlink 1556 (NORAD 46033) is a starlink constellation satellite (v1.0) launched Aug 7, 2020 by SPXS of US. It operates in LEO, CIRCULAR, STARLINK_TYPE orbit with a mass of 260.00 kg.

Starlink 1556について

説明を読み込み中...

次回通過

Passes for default location (London). Set your location on the main map for personalized predictions.

高度履歴

Loading altitude history...

軌道要素

1 46033U 20055G 26171.28484147 .00001694 00000-0 66317-4 0 9990
2 46033 53.1609 10.1249 0000891 106.2153 253.8946 15.31704434324575
Epoch: Jun 20, 2026 • Age: 33 hours

現在のステータス

高度 471.9 km
速度 7.63 km/s
衛星直下点 27.52°N, 121.43°W
打ち上げ日 Aug 7, 2020
運用期間 5.8 years
タイプ internet

技術仕様

分類 Payload
質量 260.00 kg
乾燥質量 248.00 kg
総質量 260.00 kg
長さ 0.20 m
直径 2.80 m
スパン 9.00 m
形状 Box + pan
製造者 SPXS
バスタイプ Starlink
フェーズステータス In Orbit
所有者/国 SPXS/US

Most Searched